Flag for U.S.A. Weather past 2 weeks in Paradise, California, U.S.A.

Now
82 °F

Partly sunny.


Feels Like: 80 °F
Forecast: 57 / 81 °F
Wind: 12 mph from West

Location: Chico Municipal

Current Time: Apr 19, 2015 at 2:05:06 PM

Latest Report: Apr 19, 2015 at 12:48 PM


Visibility: 40 mi

Pressure: 29.88 "Hg

Humidity: 20%

Dew point: 37 °F

Location of ParadiseLocation

Historic Weather in Paradise — Graph

°F

Paradise temperature yesterday

Maximum temperature yesterday: 82 °F (at 3:55 PM)
Minimum temperature yesterday: 50 °F (at 5:15 AM)
Average temperature yesterday: 65 °F

Past Weeks' High & Low Weather Summary

 TemperatureHumidityPressure
High82 °F (Apr 16, 4:05 PM)100% (Apr 7, 5:35 AM)30.35 "Hg (Apr 7, 5:35 AM)
Low39 °F (Apr 9, 5:35 AM)12% (Apr 12, 4:50 PM)29.76 "Hg (Apr 7, 3:15 AM)
Average57 °F52%30.00 "Hg
* Reported Apr 4 12:47 PM — Apr 19 12:48 PM, Paradise, Weather by CustomWeather, © 2015

Note: Actual official high and low records may vary slightly from our data, if they occured in-between our weather recording intervals... More about our weather records

Advertising

Paradise weather history for previous 24 hours

 ConditionsComfort  
Time TempWeatherWind HumidityBarometerVisibility
12:48 PM
Sun, Apr 19
82 °FPartly sunny.12 mph20%29.88 "Hg40 mi
11:50 AM79 °FScattered clouds.7 mph30%29.90 "Hg40 mi
10:50 AM72 °FPassing clouds.No wind41%29.93 "Hg40 mi
9:52 AM66 °FPassing clouds.No wind49%29.93 "Hg40 mi
8:49 AM63 °FPassing clouds.No wind56%29.94 "Hg40 mi
7:51 AM57 °FScattered clouds.No wind63%29.94 "Hg40 mi
6:50 AM59 °FPartly cloudy.6 mph55%29.92 "Hg40 mi
6:15 AM54 °FClear.7 mph77%29.91 "Hg10 mi
5:55 AM55 °FClear.No wind72%29.91 "Hg10 mi
5:35 AM57 °FClear.No wind67%29.91 "Hg10 mi
5:15 AM59 °FClear.No wind59%29.91 "Hg10 mi
4:55 AM57 °FClear.No wind67%29.90 "Hg10 mi
4:35 AM59 °FClear.No wind63%29.90 "Hg10 mi
4:15 AM59 °FClear.No wind59%29.91 "Hg10 mi
3:55 AM63 °FClear.No wind52%29.90 "Hg10 mi
3:35 AM64 °FClear.3 mph49%29.90 "Hg10 mi
3:15 AM63 °FClear.7 mph52%29.90 "Hg10 mi
2:55 AM59 °FClear.7 mph63%29.90 "Hg10 mi
2:35 AM59 °FClear.5 mph63%29.90 "Hg10 mi
2:15 AM63 °FClear.No wind52%29.90 "Hg10 mi
1:55 AM64 °FClear.No wind49%29.90 "Hg10 mi
1:35 AM66 °FClear.No wind46%29.90 "Hg10 mi
1:15 AM68 °FClear.6 mph40%29.90 "Hg10 mi
12:55 AM68 °FClear.7 mph40%29.90 "Hg10 mi
12:35 AM68 °FClear.3 mph43%29.89 "Hg10 mi
12:15 AM68 °FClear.No wind43%29.89 "Hg10 mi
11:55 PM
Sat, Apr 18
66 °FClear.No wind46%29.89 "Hg10 mi
11:35 PM66 °FClear.No wind49%29.88 "Hg10 mi
11:15 PM68 °FClear.No wind46%29.88 "Hg10 mi
10:55 PM68 °FClear.No wind46%29.88 "Hg10 mi
10:35 PM70 °FClear.No wind46%29.88 "Hg10 mi
10:15 PM68 °FClear.No wind49%29.88 "Hg10 mi
9:55 PM68 °FClear.No wind49%29.88 "Hg10 mi
9:35 PM68 °FClear.No wind49%29.88 "Hg10 mi
9:15 PM72 °FClear.5 mph44%29.88 "Hg8 mi
8:55 PM72 °FClear.No wind44%29.87 "Hg6 mi
8:35 PM75 °FSunny.No wind39%29.87 "Hg10 mi
8:15 PM75 °FSunny.5 mph39%29.86 "Hg10 mi
7:55 PM77 °FSunny.No wind36%29.86 "Hg10 mi
7:35 PM79 °FSunny.No wind32%29.86 "Hg10 mi
7:15 PM81 °FSunny.No wind28%29.86 "Hg10 mi
6:55 PM81 °FSunny.No wind30%29.86 "Hg10 mi
5:56 PM82 °FBroken clouds.No wind26%29.87 "Hg40 mi
4:58 PM82 °FBroken clouds.6 mph26%29.89 "Hg40 mi
3:55 PM82 °FScattered clouds.7 mph23%29.91 "Hg40 mi
Weather by CustomWeather, © 2015

See weather overviewHow to use our weather pages